JST7810 YBCG-YBSU

Flight info

Callsign JST7810
Flight time 0h 29m
Altitude 14000
Route GOMOL Q69 SU
Aircraft A320/M-SDE3FGHIRWY/LB1

Departure

Time 2026-05-04 05:15
Airport Gold Coast Airport (YBCG)

Arrival

Time 2026-05-04 05:45
Airport Sunshine Coast Airport (YBSU)
Time Latitude Longitude Altitude Speed Heading
2026-05-04 04:51 -28.16696 153.51165 29 ft 0 kts 60°
2026-05-04 05:06 -28.16707 153.51143 30 ft 4 kts 58°
2026-05-04 05:07 -28.16722 153.51118 27 ft 4 kts 49°
2026-05-04 05:07 -28.16741 153.51098 28 ft 4 kts 20°
2026-05-04 05:07 -28.16758 153.51096 30 ft 0 kts 331°
2026-05-04 05:12 -28.16756 153.51095 26 ft 4 kts 331°
2026-05-04 05:12 -28.16676 153.51044 30 ft 19 kts 330°
2026-05-04 05:12 -28.16555 153.50967 29 ft 21 kts 331°
2026-05-04 05:12 -28.16495 153.50857 26 ft 17 kts 266°
2026-05-04 05:13 -28.16409 153.50768 26 ft 19 kts 332°
2026-05-04 05:13 -28.16283 153.50688 27 ft 25 kts 330°
2026-05-04 05:13 -28.16109 153.50578 28 ft 30 kts 331°
2026-05-04 05:13 -28.15921 153.50458 27 ft 32 kts 330°
2026-05-04 05:14 -28.15724 153.50333 27 ft 33 kts 331°
2026-05-04 05:14 -28.15606 153.50209 26 ft 20 kts 270°
2026-05-04 05:14 -28.15684 153.50098 28 ft 20 kts 181°
2026-05-04 05:14 -28.15909 153.50237 27 ft 69 kts 151°
2026-05-04 05:15 -28.16509 153.50619 27 ft 125 kts 150°
2026-05-04 05:15 -28.17382 153.51174 211 ft 152 kts 151°
2026-05-04 05:15 -28.18308 153.51748 826 ft 152 kts 153°
2026-05-04 05:15 -28.19212 153.52353 1490 ft 151 kts 151°
2026-05-04 05:16 -28.20134 153.52979 1974 ft 162 kts 149°
2026-05-04 05:16 -28.21237 153.53499 2252 ft 186 kts 173°
2026-05-04 05:16 -28.22566 153.53158 2509 ft 213 kts 210°
2026-05-04 05:16 -28.23608 153.51843 2864 ft 241 kts 245°
2026-05-04 05:17 -28.23923 153.49908 3306 ft 263 kts 276°
2026-05-04 05:17 -28.23462 153.47863 4034 ft 272 kts 290°
2026-05-04 05:17 -28.22788 153.45847 4975 ft 274 kts 298°
2026-05-04 05:17 -28.21586 153.44187 5850 ft 276 kts 325°
2026-05-04 05:18 -28.19838 153.43325 6679 ft 278 kts 352°
2026-05-04 05:18 -28.17905 153.43213 7508 ft 280 kts
2026-05-04 05:18 -28.15952 153.43383 8347 ft 283 kts
2026-05-04 05:18 -28.13982 153.43575 9184 ft 286 kts
2026-05-04 05:19 -28.11981 153.43779 9990 ft 291 kts
2026-05-04 05:19 -28.09913 153.43991 10390 ft 310 kts
2026-05-04 05:19 -28.07686 153.44216 10653 ft 330 kts
2026-05-04 05:19 -28.05369 153.44448 11224 ft 337 kts
2026-05-04 05:20 -28.03018 153.44681 11906 ft 341 kts
2026-05-04 05:20 -28.00671 153.44916 12576 ft 344 kts
2026-05-04 05:20 -27.98274 153.45161 13248 ft 347 kts
2026-05-04 05:20 -27.95851 153.45411 13850 ft 351 kts
2026-05-04 05:21 -27.93416 153.45660 14040 ft 352 kts
2026-05-04 05:21 -27.90960 153.45907 14085 ft 357 kts
2026-05-04 05:21 -27.88480 153.46156 14092 ft 359 kts
2026-05-04 05:21 -27.85987 153.46406 14093 ft 359 kts
2026-05-04 05:22 -27.83494 153.46654 14093 ft 359 kts
2026-05-04 05:22 -27.81000 153.46905 14092 ft 359 kts
2026-05-04 05:22 -27.78507 153.47157 14090 ft 359 kts
2026-05-04 05:22 -27.76014 153.47407 14090 ft 359 kts
2026-05-04 05:23 -27.73525 153.47655 14091 ft 359 kts
2026-05-04 05:23 -27.71035 153.47904 14089 ft 359 kts
2026-05-04 05:23 -27.68542 153.48152 14079 ft 359 kts
2026-05-04 05:23 -27.66052 153.48401 14080 ft 359 kts
2026-05-04 05:24 -27.63562 153.48648 14082 ft 360 kts
2026-05-04 05:24 -27.61065 153.48897 14085 ft 360 kts
2026-05-04 05:24 -27.58574 153.49145 14088 ft 360 kts
2026-05-04 05:24 -27.56080 153.49394 14091 ft 360 kts
2026-05-04 05:25 -27.53572 153.49645 14086 ft 365 kts
2026-05-04 05:25 -27.51028 153.49703 14085 ft 367 kts 357°
2026-05-04 05:25 -27.48472 153.49678 14078 ft 367 kts 357°
2026-05-04 05:25 -27.45914 153.49654 14082 ft 368 kts 358°
2026-05-04 05:26 -27.43355 153.49631 14085 ft 368 kts 357°
2026-05-04 05:26 -27.40796 153.49608 14083 ft 368 kts 357°
2026-05-04 05:26 -27.38235 153.49586 14085 ft 368 kts 358°
2026-05-04 05:26 -27.35708 153.49565 14083 ft 368 kts 358°
2026-05-04 05:27 -27.33148 153.49544 14083 ft 368 kts 357°
2026-05-04 05:28 -27.15203 153.49367 14081 ft 368 kts 357°
2026-05-04 05:29 -27.12643 153.49342 14089 ft 368 kts 357°
2026-05-04 05:29 -27.10080 153.49323 14089 ft 368 kts 358°
2026-05-04 05:29 -27.07514 153.49304 14092 ft 368 kts 358°
2026-05-04 05:29 -27.04950 153.49283 14089 ft 368 kts 358°
2026-05-04 05:31 -26.87008 153.49111 14089 ft 368 kts 357°
2026-05-04 05:31 -26.85313 153.49097 14093 ft 368 kts 358°
2026-05-04 05:32 -26.81918 153.49068 14088 ft 368 kts 357°
2026-05-04 05:32 -26.79359 153.49043 14070 ft 368 kts 357°
2026-05-04 05:32 -26.77629 153.49026 13958 ft 362 kts 357°
2026-05-04 05:33 -26.72927 153.48370 13048 ft 332 kts 337°
2026-05-04 05:33 -26.70932 153.47185 12625 ft 322 kts 326°
2026-05-04 05:33 -26.69054 153.45833 12218 ft 320 kts 326°
2026-05-04 05:33 -26.67182 153.44506 11814 ft 318 kts 327°
2026-05-04 05:34 -26.65312 153.43191 11411 ft 317 kts 327°
2026-05-04 05:34 -26.63450 153.41883 11012 ft 316 kts 328°
2026-05-04 05:34 -26.61591 153.40578 10616 ft 315 kts 328°
2026-05-04 05:34 -26.59737 153.39275 10203 ft 315 kts 328°
2026-05-04 05:35 -26.57902 153.37985 10039 ft 306 kts 328°
2026-05-04 05:35 -26.56128 153.36736 9873 ft 298 kts 328°
2026-05-04 05:35 -26.54390 153.35513 9275 ft 294 kts 328°
2026-05-04 05:35 -26.52661 153.34295 8618 ft 294 kts 328°
2026-05-04 05:36 -26.50930 153.33077 7956 ft 293 kts 328°
2026-05-04 05:36 -26.49210 153.31868 7359 ft 291 kts 328°
2026-05-04 05:36 -26.47524 153.30673 7054 ft 283 kts 326°
2026-05-04 05:36 -26.46052 153.29212 6402 ft 287 kts 309°
2026-05-04 05:37 -26.45003 153.27317 5751 ft 287 kts 293°
2026-05-04 05:37 -26.44204 153.25275 5076 ft 287 kts 293°
2026-05-04 05:37 -26.43575 153.23195 4665 ft 276 kts 278°
2026-05-04 05:38 -26.43608 153.19217 4543 ft 244 kts 263°
2026-05-04 05:38 -26.43742 153.17373 4456 ft 235 kts 263°
2026-05-04 05:38 -26.43871 153.15601 4360 ft 224 kts 263°
2026-05-04 05:38 -26.43995 153.13902 4264 ft 215 kts 263°
2026-05-04 05:39 -26.44118 153.12255 4166 ft 212 kts 262°
2026-05-04 05:39 -26.44705 153.09066 3714 ft 214 kts 253°
2026-05-04 05:39 -26.45069 153.07443 3412 ft 216 kts 252°
2026-05-04 05:40 -26.46106 153.04334 2852 ft 209 kts 230°
2026-05-04 05:40 -26.47076 153.03181 2564 ft 199 kts 214°
2026-05-04 05:40 -26.48232 153.02405 2298 ft 189 kts 199°
2026-05-04 05:41 -26.49440 153.02018 2054 ft 174 kts 184°
2026-05-04 05:41 -26.50604 153.01968 1835 ft 162 kts 171°
2026-05-04 05:41 -26.51674 153.02194 1642 ft 149 kts 160°
2026-05-04 05:41 -26.52588 153.02620 1439 ft 140 kts 152°
2026-05-04 05:42 -26.53380 153.03209 1266 ft 135 kts 141°
2026-05-04 05:42 -26.54134 153.03861 1087 ft 137 kts 141°
2026-05-04 05:42 -26.54887 153.04506 906 ft 134 kts 141°
2026-05-04 05:42 -26.55614 153.05129 733 ft 133 kts 140°
2026-05-04 05:43 -26.56349 153.05786 564 ft 134 kts 141°
2026-05-04 05:43 -26.57071 153.06434 387 ft 132 kts 146°
2026-05-04 05:43 -26.57820 153.07029 211 ft 133 kts 140°
2026-05-04 05:45 -26.60158 153.08830 21 ft 10 kts 204°
2026-05-04 05:45 -26.60230 153.08859 23 ft 13 kts 144°
2026-05-04 05:47 -26.60480 153.08913 22 ft 0 kts 232°